User: anonymous
Location: Unspecified
(0.0000°N, 0.0000°E)
Time: 06:04:55
(UTC+02:00)
Language:

BREEZE-M DEB (TANK) - Orbit

View from above orbital plane
View from above orbital plane
View from above satellite
View from above satellite

Ground track
Ground track

The orbit data is extracted from the following two-line orbital elements,

1 33374U 08044B   14263.26229200  .00001653  00000-0  51277-3 0  7353
2 33374 049.4559 264.7034 5452804 205.2588 278.6595 04.84438428105342
Epoch (UTC): 20 September 2014 06:17:42
Eccentricity: 0.5452804
inclination: 49.4559°
perigee height: 331 km
apogee height: 16421 km
right ascension of ascending node: 264.7034°
argument of perigee: 205.2588°
revolutions per day: 4.84438428
mean anomaly at epoch: 278.6595°
orbit number at epoch: 10534

The dashed part of the orbit path shows where the satellite is in the earth's shadow,  

DLR